When you browse on this site, cookies collect data to enhance your experience and personalize the content and advertising you see.
Visit our Privacy Policy to learn more. By continuing to use the site, you agree to this use of cookies and data.
  • în România
  • Lista ţărilor
  • Pe 7 zile
  • Temperatura apei
  • Meteo pe hartă
  • Widget-uri
  • user-avatar
    Intrare

    Meteo pe oră la Ísafjörður

    Astăzi, 22 August, Joi

    Timp Temperatura Precipitaţii Vânt Presiune Umiditate
    00:00 +5°C° 0 mm 3 m/s 733 mmHg 93%
    01:00 +5°C° 0 mm 3 m/s 733 mmHg 94%
    02:00 +5°C° 0 mm 3 m/s 733 mmHg 93%
    03:00 +6°C° 0 mm 2 m/s 733 mmHg 93%
    04:00 +6°C° 0 mm 2 m/s 733 mmHg 92%
    05:00 +7°C° 0 mm 2 m/s 733 mmHg 86%
    06:00 +8°C° 0 mm 3 m/s 733 mmHg 80%
    07:00 +9°C° 0 mm 3 m/s 733 mmHg 74%
    08:00 +10°C° 0 mm 3 m/s 733 mmHg 71%
    09:00 +11°C° 0 mm 3 m/s 733 mmHg 68%
    10:00 +12°C° 0 mm 3 m/s 733 mmHg 66%
    11:00 +12°C° 0 mm 3 m/s 733 mmHg 65%
    12:00 +12°C° 0 mm 3 m/s 733 mmHg 65%
    13:00 +13°C° 0 mm 3 m/s 734 mmHg 65%
    14:00 +12°C° 0 mm 3 m/s 733 mmHg 66%
    15:00 +12°C° 0 mm 3 m/s 733 mmHg 67%
    16:00 +12°C° 0 mm 3 m/s 733 mmHg 68%
    17:00 +12°C° 0 mm 3 m/s 733 mmHg 72%
    18:00 +11°C° 0 mm 3 m/s 734 mmHg 76%
    19:00 +10°C° 0 mm 3 m/s 734 mmHg 79%
    20:00 +10°C° 0 mm 3 m/s 734 mmHg 81%
    21:00 +9°C° 0 mm 3 m/s 734 mmHg 84%
    22:00 +9°C° 0 mm 2 m/s 734 mmHg 86%
    23:00 +9°C° 0 mm 2 m/s 734 mmHg 87%

    Mâine, 23 August, Vineri

    Timp Temperatura Precipitaţii Vânt Presiune Umiditate
    00:00 +9°C° 0 mm 2 m/s 734 mmHg 87%
    01:00 +8°C° 0 mm 2 m/s 734 mmHg 88%
    02:00 +9°C° 0 mm 2 m/s 734 mmHg 86%
    03:00 +9°C° 0 mm 2 m/s 734 mmHg 85%
    04:00 +9°C° 0 mm 2 m/s 734 mmHg 83%
    05:00 +9°C° 0 mm 2 m/s 735 mmHg 80%
    06:00 +10°C° 0 mm 2 m/s 735 mmHg 78%
    07:00 +12°C° 0 mm 2 m/s 735 mmHg 76%
    08:00 +12°C° 0 mm 2 m/s 736 mmHg 72%
    09:00 +13°C° 0 mm 2 m/s 736 mmHg 69%
    10:00 +13°C° 0 mm 2 m/s 736 mmHg 65%
    11:00 +13°C° 0 mm 2 m/s 736 mmHg 66%
    12:00 +13°C° 0 mm 2 m/s 736 mmHg 66%
    13:00 +13°C° 0 mm 2 m/s 737 mmHg 66%
    14:00 +13°C° 0 mm 2 m/s 737 mmHg 68%
    15:00 +12°C° 0 mm 3 m/s 736 mmHg 70%
    16:00 +12°C° 0 mm 3 m/s 736 mmHg 72%
    17:00 +12°C° 0 mm 2 m/s 737 mmHg 75%
    18:00 +12°C° 0 mm 2 m/s 737 mmHg 78%
    19:00 +11°C° 0 mm 1 m/s 737 mmHg 82%
    20:00 +11°C° 0 mm 1 m/s 737 mmHg 83%
    21:00 +10°C° 0 mm 1 m/s 737 mmHg 85%
    22:00 +10°C° 0 mm 1 m/s 737 mmHg 87%
    23:00 +10°C° 0 mm 1 m/s 737 mmHg 87%

    Poimâine, 24 August, Sâmbătă

    Timp Temperatura Precipitaţii Vânt Presiune Umiditate
    00:00 +9°C° 0 mm 2 m/s 737 mmHg 86%
    01:00 +9°C° 0 mm 2 m/s 737 mmHg 86%
    02:00 +9°C° 0 mm 2 m/s 736 mmHg 87%
    03:00 +8°C° 0 mm 2 m/s 736 mmHg 88%
    04:00 +8°C° 0 mm 3 m/s 736 mmHg 89%
    05:00 +8°C° 0 mm 3 m/s 735 mmHg 88%
    06:00 +9°C° 0 mm 3 m/s 735 mmHg 86%
    07:00 +9°C° 0 mm 3 m/s 735 mmHg 85%
    08:00 +10°C° 0 mm 4 m/s 734 mmHg 82%
    09:00 +10°C° 0 mm 4 m/s 734 mmHg 79%
    10:00 +10°C° 0 mm 4 m/s 734 mmHg 76%
    11:00 +10°C° 0 mm 4 m/s 733 mmHg 76%
    12:00 +10°C° 0 mm 4 m/s 733 mmHg 76%
    13:00 +10°C° 0 mm 4 m/s 732 mmHg 76%
    14:00 +10°C° 0.5 mm 4 m/s 732 mmHg 79%
    15:00 +10°C° 0.5 mm 4 m/s 731 mmHg 82%
    16:00 +8°C° 0.5 mm 5 m/s 731 mmHg 85%
    17:00 +8°C° 1.2 mm 4 m/s 730 mmHg 88%
    18:00 +7°C° 1.2 mm 4 m/s 730 mmHg 91%
    19:00 +7°C° 1.2 mm 4 m/s 730 mmHg 94%
    20:00 +8°C° 0.5 mm 3 m/s 729 mmHg 94%
    21:00 +8°C° 0.5 mm 3 m/s 729 mmHg 94%
    22:00 +8°C° 0.5 mm 2 m/s 728 mmHg 94%
    23:00 +8°C° 0.2 mm 2 m/s 728 mmHg 95%

    25 August, Duminică

    Timp Temperatura Precipitaţii Vânt Presiune Umiditate
    00:00 +8°C° 0.2 mm 2 m/s 728 mmHg 96%
    01:00 +7°C° 0.2 mm 2 m/s 728 mmHg 96%
    02:00 +7°C° 0.1 mm 2 m/s 728 mmHg 96%
    03:00 +7°C° 0.1 mm 2 m/s 727 mmHg 96%
    04:00 +7°C° 0.1 mm 3 m/s 727 mmHg 96%
    05:00 +7°C° 0 mm 3 m/s 727 mmHg 95%
    06:00 +7°C° 0 mm 3 m/s 727 mmHg 93%
    07:00 +7°C° 0 mm 3 m/s 727 mmHg 92%
    08:00 +7°C° 0 mm 3 m/s 727 mmHg 90%
    09:00 +8°C° 0 mm 3 m/s 726 mmHg 88%
    10:00 +8°C° 0 mm 3 m/s 726 mmHg 86%
    11:00 +8°C° 0.1 mm 3 m/s 726 mmHg 82%
    12:00 +9°C° 0.1 mm 2 m/s 725 mmHg 78%
    13:00 +9°C° 0.1 mm 2 m/s 725 mmHg 73%
    14:00 +9°C° 0 mm 2 m/s 724 mmHg 74%
    15:00 +9°C° 0 mm 3 m/s 723 mmHg 75%
    16:00 +8°C° 0 mm 3 m/s 723 mmHg 76%
    17:00 +7°C° 0 mm 4 m/s 722 mmHg 78%
    18:00 +7°C° 0 mm 4 m/s 721 mmHg 80%
    19:00 +7°C° 0 mm 5 m/s 721 mmHg 82%
    20:00 +7°C° 0 mm 6 m/s 720 mmHg 83%
    21:00 +5°C° 0 mm 6 m/s 720 mmHg 85%
    22:00 +5°C° 0 mm 6 m/s 719 mmHg 86%
    23:00 +5°C° 0 mm 7 m/s 719 mmHg 89%

    26 August, Luni

    Timp Temperatura Precipitaţii Vânt Presiune Umiditate
    00:00 +5°C° 0 mm 7 m/s 719 mmHg 92%
    01:00 +5°C° 0 mm 7 m/s 718 mmHg 95%
    02:00 +5°C° 0 mm 8 m/s 718 mmHg 94%
    03:00 +5°C° 0 mm 8 m/s 719 mmHg 94%
    04:00 +3°C° 0 mm 9 m/s 719 mmHg 94%
    05:00 +5°C° 0.3 mm 8 m/s 719 mmHg 95%
    06:00 +5°C° 0.3 mm 7 m/s 719 mmHg 95%
    07:00 +5°C° 0.3 mm 6 m/s 720 mmHg 95%
    08:00 +5°C° 0.7 mm 6 m/s 720 mmHg 95%
    09:00 +5°C° 0.7 mm 6 m/s 721 mmHg 95%
    10:00 +6°C° 0.7 mm 5 m/s 721 mmHg 95%
    11:00 +5°C° 0.6 mm 6 m/s 722 mmHg 95%
    12:00 +5°C° 0.6 mm 6 m/s 722 mmHg 95%
    13:00 +5°C° 0.6 mm 6 m/s 723 mmHg 94%
    14:00 +4°C° 0.4 mm 6 m/s 723 mmHg 94%
    15:00 +4°C° 0.4 mm 6 m/s 724 mmHg 95%
    16:00 +5°C° 0.4 mm 5 m/s 724 mmHg 95%
    17:00 +5°C° 0.3 mm 5 m/s 725 mmHg 95%
    18:00 +3°C° 0.3 mm 5 m/s 725 mmHg 95%
    19:00 +4°C° 0.3 mm 4 m/s 726 mmHg 95%
    20:00 +4°C° 0.4 mm 4 m/s 726 mmHg 95%
    21:00 +4°C° 0.4 mm 4 m/s 727 mmHg 95%
    22:00 +4°C° 0.4 mm 4 m/s 727 mmHg 95%
    23:00 +4°C° 0.2 mm 4 m/s 727 mmHg 95%

    27 August, Marţi

    Timp Temperatura Precipitaţii Vânt Presiune Umiditate
    00:00 +4°C° 0.2 mm 4 m/s 728 mmHg 95%
    01:00 +3°C° 0.2 mm 5 m/s 728 mmHg 95%
    02:00 +3°C° 0.1 mm 5 m/s 728 mmHg 95%
    03:00 +3°C° 0.1 mm 5 m/s 728 mmHg 95%
    04:00 +3°C° 0.1 mm 5 m/s 729 mmHg 95%
    05:00 +3°C° 0.2 mm 5 m/s 729 mmHg 95%
    06:00 +3°C° 0.2 mm 5 m/s 729 mmHg 95%
    07:00 +3°C° 0.2 mm 6 m/s 730 mmHg 95%
    08:00 +3°C° 0.2 mm 5 m/s 730 mmHg 94%
    09:00 +3°C° 0.2 mm 5 m/s 730 mmHg 94%
    10:00 +3°C° 0.2 mm 5 m/s 730 mmHg 94%
    11:00 +3°C° 0.3 mm 5 m/s 731 mmHg 94%
    12:00 +3°C° 0.3 mm 5 m/s 731 mmHg 94%
    13:00 +4°C° 0.3 mm 4 m/s 731 mmHg 95%
    14:00 +3°C° 0.2 mm 5 m/s 731 mmHg 94%
    15:00 +3°C° 0.2 mm 5 m/s 731 mmHg 94%
    16:00 +3°C° 0.2 mm 5 m/s 732 mmHg 94%
    17:00 +3°C° 0.3 mm 5 m/s 732 mmHg 94%
    18:00 +3°C° 0.3 mm 5 m/s 732 mmHg 95%
    19:00 +3°C° 0.3 mm 5 m/s 733 mmHg 95%
    20:00 +3°C° 0.1 mm 5 m/s 733 mmHg 95%
    21:00 +3°C° 0.1 mm 5 m/s 733 mmHg 95%
    22:00 +3°C° 0.1 mm 5 m/s 734 mmHg 95%
    23:00 +3°C° 0.2 mm 5 m/s 734 mmHg 95%
    Arată mai mult